User: anonymous
Location: Caltech
(34.1382°N, 118.1253°W)
Time: 14:11:42
(UTC-07:00)
Language:

Cosmos 1758 Rocket - Orbit

View from above orbital plane
View from above orbital plane
View from above satellite
View from above satellite

Ground track
Ground track

The orbit data is extracted from the following two-line orbital elements,

1 16792U 86046B   14244.66327500  .00000294  00000-0  33348-4 0  5539
2 16792 082.4802 081.4697 0025361 052.2803 013.9005 14.82605479523782
Epoch (UTC): 01 September 2014 15:55:06
Eccentricity: 0.0025361
inclination: 82.4802°
perigee height: 603 km
apogee height: 639 km
right ascension of ascending node: 81.4697°
argument of perigee: 52.2803°
revolutions per day: 14.82605479
mean anomaly at epoch: 13.9005°
orbit number at epoch: 52378

The dashed part of the orbit path shows where the satellite is in the earth's shadow,  

DLR